MET993 - Jakarta to Hong Kong

Airbus A330-243
787MT
4 hrs 15 mins
1762 nm
Scheduled - SU | W | F | SA

Bid/PiRep Status

Bid was submitted on Jan 01 2017.

PiRep # 74567: Approved by Sean Doyle on January 2nd, 2017 20:14 UTC

Departure

Departing from
Jakarta (CGK)
Departure gate
Ramp
Scheduled Departure
GMT 1215
Local 1915
METAR WIII 242200Z 26002KT 5000 HZ SCT020 26/24 Q1010 NOSIG
TAF TAF WIII 241700Z 2418/2524 VRB04KT 4000 HZ SCT020 BECMG 2502/2504 03007KT 8000 NSW
  • No charts available

Arrival

Arriving at
Hong Kong (HKG)
Arrival gate
Terminal 1
Scheduled Arrival
GMT 1630
Local 0030
METAR VHHH 242200Z 06005KT 9999 FEW017 SCT025 28/25 Q1004 NOSIG
TAF TAF VHHH 241700Z 2418/2524 11010KT 9999 FEW025 TX33/2506Z TN28/2422Z TN28/2522Z TEMPO 2418/2502 VRB05KT TEMPO 2502/2510 27010KT TEMPO 2514/2524 VRB05KT

Route Map

Planning Resources

DKI P648 OSUKA M772 DULOP M771 DUMOL
AMBO1B AMBOY P648 OSUKA M772 DULOP Q1 CARSO V551 BETTY BETY2B
JAKARTA2 DEDNY B592 OSUKA M772 DUMOL DUMOL1A
WIII DKI ATOSO OSUKA ANIPU VSB TAMIB DARMU ASISU VAVUM DABGI DUM OL CH VHHH
AMBO1B AMBOY P648 OSUKA M772 DULOP Q1 CARSO
Route:
OFP Layout:
Units:
Detailed Navlog:
ETOPS Planning:
Plan Stepclimbs:
Runway Analysis:
Include NOTAMS:
FIR NOTAMS:
Flight Maps:

Return Flights

MET992
Airbus A330-243
0700 GMT

Popularity

Hub Current Bids PiReps this month Total PiReps
KMCI 0 0 3
KLAX 0 0 4
KBOS 0 0 0